Location: Maiden
(35.5760°N, 81.2120°W)
Time: 02:39:58
(UTC-04:00)

A-11 Canister half - Pass Details

Date: 06 August 2020
Orbit: 1527 x 1682 km, 47.3° (Epoch: 25 September)

Event Time Altitude Azimuth Distance (km) Brightness Sun altitude
Rises 22:30:31 0° 296° (WNW) 4,867 12.9 -22.8°
Reaches altitude 10° 22:34:23 10° 284° (WNW) 3,853 11.9 -23.4°
Maximum altitude 22:41:48 25° 234° (SW) 2,786 10.4 -24.5°
Enters shadow 22:47:16 15° 192° (SSW) 3,360 10.5 -25.3°
Drops below altitude 10° 22:49:04 10° 183° (S) 3,746 - -25.5°
Sets 22:52:48 0° 171° (S) 4,705 - -26.1°
